Location: Newark
(27.9675°N, 86.8869°E)
Time: 17:20:44
(UTC+00:00)

deb Explorer IX - Pass Details

Date: 29 October 2019
Orbit: 546 x 1105 km, 38.8° (Epoch: 14 November)

Event Time Altitude Azimuth Distance (km) Brightness Sun altitude
Rises 08:22:49 0° 302° (WNW) 3,049 ? 35.5°
Reaches altitude 10° 08:25:06 10° 307° (NW) 2,210 ? 35.1°
Maximum altitude 08:30:14 56° 25° (NNE) 958 ? 34.3°
Drops below altitude 10° 08:36:15 10° 103° (ESE) 2,593 ? 33.3°
Sets 08:39:07 0° 107° (ESE) 3,625 ? 32.8°
